Weather in Basakin

Russia / Volgograd Oblast     48°09′52″N   42°16′41″E
temp.,
°C
wind,
m/s
gust,
m/s
humid.,
%
clouds,
%
prec.,
mm/h
press.,
hPa
HPBL,
m
31 july, sat
sat3100:00+25ssw224225 0.0 100920
03:00+23w11400 0.0 100911
06:00+23ssw23420 0.0 100954
09:00+31ssw34250 0.0 1009637
12:00+34s34205 0.0 10092947
15:00+35s43197 0.0 10083257
18:00+34se222027 0.0 10082754
21:00+28nnw123271 0.0 101058
1 august, sun
sun100:00+26ne35470 0.0 101081
03:00+24e22432 0.0 101112
06:00+25ese22373 0.0 101125
09:00+32sse23234 0.0 1012623
12:00+36sse33162 0.0 10113527
15:00+37se42145 0.0 10103873
18:00+35se43151 0.0 10101455
21:00+29ese22200 0.0 101011
2 august, mon
mon200:00+27se22230 0.0 101111
03:00+25nne22271 0.0 101113
06:00+26ese22353 0.0 101121
09:00+34e33250 0.0 1011577
12:00+37se44202 0.0 10103443
15:00+38sse531833 0.0 10093774
18:00+37sse44186 0.0 10083542
21:00+29e11283 0.0 100911
3 august, tue
tue300:00+28se23277 0.0 100918
03:00+27sse33371 0.0 100924
06:00+26se23474 0.0 100976
09:00+33sse342885 0.0 1009652
12:00+37ssw34210 0.0 10082521
15:00+39wsw34156 0.0 10064169
18:00+36w572099 0.0 10061248
21:00+29nnw81044100 0.1 1010487
4 august, wed
wed400:00+25n5863100 0.0 1010275
03:00+21nne58835 5.7 1011213
06:00+22n467898 0.2 1012232
09:00+26n445957 0.2 1013598
12:00+30n3342100 0.0 10131840
15:00+30nnw3339100 0.1 10121517
18:00+26sw135497 0.8 1013315
21:00+26ne345196 0.9 101467